Date String (YYYY-MM-DD hh:mm:ss) UTC,Instrument flags,Ambient pressure (hPa),Sample flow (lpm),Bypass flow (lpm),Sample temperature (°C),Ambient temperature (°C),ASC tube jacket temperature (°C),LED temperature (°C),Box temperature (°C),Sample RH (%),Span deviation,Mass concentration (μg/m³),Mass concentration (μg/m³),Mass concentration (μg/m³)
DateTimeUTC,F1_M11,P_M11,Q1_M11,Q2_M11,T1_M11,T2_M11,T3_M11,T4_M11,T5_M11,U1_M11,ZSPAN_M11,X0_M11,X2_M11,X1_M11
2021-10-03 16:00:00,,0832.2,4.99,0.00,30.3,28.2,00.0,39.5,31.9,15.6,0000.0,0008.57,0004.58,0004.11
2021-10-03 16:01:00,,0832.2,5.00,0.00,30.3,28.5,00.0,39.5,31.9,15.5,0000.4,0008.59,0004.59,0004.11
2021-10-03 16:02:00,,0832.2,5.01,0.00,30.3,28.7,00.0,39.5,31.9,15.6,0000.0,0008.59,0004.56,0004.09
2021-10-03 16:03:00,,0832.3,5.00,0.00,30.3,28.8,00.0,39.5,32.0,15.3,0000.1,0008.54,0004.53,0004.09
2021-10-03 16:04:00,,0832.2,5.00,0.00,30.3,29.0,00.0,39.5,32.0,15.2,0000.8,0008.53,0004.51,0004.07
2021-10-03 16:05:00,,0832.3,5.01,0.00,30.3,29.1,00.0,39.5,32.1,15.8,0000.8,0008.70,0004.50,0004.06
2021-10-03 16:06:00,,0832.3,4.99,0.00,30.4,29.2,00.0,39.5,32.1,15.4,0000.7,0008.69,0004.46,0004.04
2021-10-03 16:07:00,,0832.3,5.00,0.00,30.4,29.3,00.0,39.5,32.1,15.6,0000.8,0008.45,0004.46,0004.03
2021-10-03 16:08:00,,0832.3,5.01,0.00,30.4,29.3,00.0,39.5,32.1,15.1,0001.2,0007.70,0004.43,0004.01
2021-10-03 16:09:00,,0832.3,5.00,0.00,30.4,29.4,00.0,39.5,32.1,14.8,0001.3,0007.62,0004.40,0004.00
2021-10-03 16:10:00,,0832.3,5.01,0.00,30.4,29.5,00.0,39.5,32.2,15.3,0001.7,0007.64,0004.41,0004.00
2021-10-03 16:11:00,,0832.3,4.99,0.00,30.4,29.5,00.0,39.5,32.2,16.0,0001.8,0007.66,0004.38,0003.98
2021-10-03 16:12:00,,0832.3,4.99,0.00,30.5,29.6,00.0,39.5,32.2,15.8,0000.4,0007.73,0004.38,0003.98
2021-10-03 16:13:00,,0832.2,5.02,0.00,30.5,29.6,00.0,39.5,32.2,15.9,0002.0,0007.73,0004.37,0003.98
2021-10-03 16:14:00,,0832.2,5.00,0.00,30.5,29.7,00.0,39.5,32.3,15.4,0002.2,0008.10,0004.41,0003.98
2021-10-03 16:15:00,,0832.3,5.00,0.00,30.5,29.7,00.0,39.5,32.3,15.5,0000.5,0008.06,0004.41,0003.99
2021-10-03 16:16:00,,0832.2,4.99,0.00,30.6,29.6,00.0,39.5,32.3,15.4,0000.0,0007.83,0004.38,0003.98
2021-10-03 16:17:00,,0832.2,5.00,0.00,30.5,28.0,00.0,39.5,31.9,15.0,0000.0,0007.77,0004.38,0003.98
2021-10-03 16:18:00,,0832.2,5.00,0.00,30.3,26.6,00.0,39.5,31.5,15.3,0000.1,0007.78,0004.36,0003.97
2021-10-03 16:19:00,,0832.2,5.00,0.00,30.2,26.9,00.0,39.5,31.6,15.9,0002.3,0007.86,0004.37,0003.98
2021-10-03 16:20:00,,0832.2,5.00,0.00,30.2,27.3,00.0,39.4,31.6,16.0,0002.2,0007.97,0004.40,0003.99
2021-10-03 16:21:00,,0832.2,5.01,0.00,30.1,27.7,00.0,39.4,31.7,16.1,0002.2,0007.98,0004.40,0003.99
2021-10-03 16:22:00,,0832.2,5.00,0.00,30.1,28.1,00.0,39.3,31.7,16.4,0001.9,0008.02,0004.40,0004.00
2021-10-03 16:23:00,,0832.2,5.00,0.00,30.1,28.3,00.0,39.3,31.8,16.8,0001.6,0008.11,0004.41,0003.99
2021-10-03 16:24:00,,0832.2,4.99,0.00,30.2,28.6,00.0,39.3,31.9,16.2,0001.0,0008.11,0004.42,0003.98
2021-10-03 16:25:00,,0832.2,5.02,0.00,30.2,28.8,00.0,39.3,31.9,16.6,0001.0,0007.83,0004.40,0003.97
2021-10-03 16:26:00,,0832.2,4.99,0.00,30.2,28.9,00.0,39.3,31.9,16.8,0001.5,0007.83,0004.41,0003.98
2021-10-03 16:27:00,,0832.2,5.00,0.00,30.2,29.0,00.0,39.3,32.0,16.4,0001.4,0007.93,0004.41,0003.98
2021-10-03 16:28:00,,0832.2,5.01,0.00,30.3,29.1,00.0,39.3,32.0,16.6,0001.4,0008.06,0004.40,0003.98
2021-10-03 16:29:00,,0832.2,5.01,0.00,30.3,29.2,00.0,39.3,32.0,16.8,0001.3,0008.09,0004.42,0003.99
2021-10-03 16:30:00,,0832.1,4.99,0.00,30.3,29.3,00.0,39.3,32.1,16.4,0001.3,0008.45,0004.43,0003.99
2021-10-03 16:31:00,,0832.1,4.99,0.00,30.3,29.4,00.0,39.3,32.1,16.2,0001.5,0008.37,0004.42,0003.99
2021-10-03 16:32:00,,0832.1,5.00,0.00,30.4,29.4,00.0,39.3,32.1,16.7,0001.4,0008.39,0004.43,0003.99
2021-10-03 16:33:00,,0832.1,5.00,0.00,30.4,29.3,00.0,39.4,32.1,16.3,0001.3,0008.36,0004.44,0004.00
2021-10-03 16:34:00,,0832.1,5.00,0.00,30.3,27.8,00.0,39.4,31.7,16.4,0001.3,0008.11,0004.40,0004.00
2021-10-03 16:35:00,,0832.1,4.99,0.00,30.1,26.5,00.0,39.3,31.3,16.6,0002.0,0008.03,0004.39,0004.00
2021-10-03 16:36:00,,0832.1,5.00,0.00,30.1,26.7,00.0,39.3,31.4,16.4,0002.0,0007.97,0004.39,0003.99
2021-10-03 16:37:00,,0832.1,5.01,0.00,30.0,27.1,00.0,39.2,31.5,16.2,0002.0,0008.10,0004.41,0004.00
2021-10-03 16:38:00,,0832.1,4.99,0.00,30.0,27.5,00.0,39.2,31.5,15.6,0002.2,0008.13,0004.42,0004.00
2021-10-03 16:39:00,,0832.1,5.00,0.00,30.0,27.9,00.0,39.2,31.6,16.1,0002.3,0007.89,0004.41,0004.00
2021-10-03 16:40:00,,0832.1,4.99,0.00,30.0,28.2,00.0,39.1,31.7,16.0,0002.3,0007.90,0004.41,0004.00
2021-10-03 16:41:00,,0832.1,5.01,0.00,30.0,28.4,00.0,39.1,31.7,16.1,0002.5,0007.55,0004.39,0004.01
2021-10-03 16:42:00,,0832.1,5.00,0.00,30.0,28.6,00.0,39.1,31.7,16.2,0002.4,0007.51,0004.37,0004.01
2021-10-03 16:43:00,,0832.1,4.99,0.00,30.0,28.8,00.0,39.1,31.8,15.9,0002.5,0007.44,0004.35,0004.00
2021-10-03 16:44:00,,0832.1,5.00,0.00,30.1,28.9,00.0,39.1,31.9,15.4,0002.8,0007.38,0004.32,0004.00
2021-10-03 16:45:00,,0832.1,5.01,0.00,30.1,29.0,00.0,39.1,31.9,14.8,0002.8,0007.73,0004.34,0003.99
2021-10-03 16:46:00,,0832.1,5.00,0.00,30.1,29.1,00.0,39.1,31.9,15.2,0002.8,0008.04,0004.34,0003.98
2021-10-03 16:47:00,,0832.2,4.99,0.00,30.2,29.2,00.0,39.1,32.0,15.7,0002.9,0008.06,0004.35,0003.99
2021-10-03 16:48:00,,0832.1,5.01,0.00,30.2,29.3,00.0,39.2,32.0,15.5,0003.0,0007.96,0004.31,0003.98
2021-10-03 16:49:00,,0832.1,5.00,0.00,30.2,29.3,00.0,39.2,32.0,15.6,0003.0,0007.85,0004.32,0003.97
2021-10-03 16:50:00,,0832.1,5.01,0.00,30.3,29.4,00.0,39.2,32.1,16.7,0002.9,0007.93,0004.34,0003.98
2021-10-03 16:51:00,,0832.1,5.01,0.00,30.3,28.8,00.0,39.2,31.9,17.7,0002.9,0008.74,0004.35,0003.99
2021-10-03 16:52:00,,0832.1,5.00,0.00,30.2,26.9,00.0,39.2,31.4,18.3,0003.1,0008.71,0004.38,0004.01
2021-10-03 16:53:00,,0832.1,5.01,0.00,30.0,26.3,00.0,39.2,31.2,17.8,0002.7,0008.68,0004.40,0004.02
2021-10-03 16:54:00,,0832.1,4.99,0.00,29.9,26.7,00.0,39.1,31.4,17.9,0002.5,0008.65,0004.40,0004.02
2021-10-03 16:55:00,,0832.1,5.00,0.00,29.9,27.2,00.0,39.1,31.4,18.3,0002.8,0008.71,0004.43,0004.04
2021-10-03 16:56:00,,0832.1,5.00,0.00,29.9,27.6,00.0,39.0,31.5,17.9,0002.9,0008.56,0004.45,0004.05
2021-10-03 16:57:00,,0832.1,5.00,0.00,29.9,27.9,00.0,39.0,31.5,18.1,0003.2,0008.20,0004.46,0004.06
2021-10-03 16:58:00,,0832.1,4.99,0.00,29.9,28.2,00.0,39.0,31.6,17.1,0003.0,0008.26,0004.43,0004.06
2021-10-03 16:59:00,,0832.1,4.99,0.00,29.9,28.4,00.0,39.0,31.7,17.8,0002.7,0008.94,0004.45,0004.07
